• In Uzbekistan
  • List of Countries
  • For 7 days
  • Water Temperature
  • Satellite Maps
  • Weather Map
  • Weather Widgets
  • user-avatar
    Login

    Hourly Weather Sarajevo

    Today, 16 December, Saturday

    Time Temperature Precipitation Wind Pressure Humidity
    00:00 +5°C° 3.3 mm 9 mps 675 mmHg 90%
    01:00 +5°C° 3.3 mm 9 mps 674 mmHg 90%
    02:00 +5°C° 2.6 mm 9 mps 675 mmHg 90%
    03:00 +5°C° 2.6 mm 8 mps 675 mmHg 91%
    04:00 +5°C° 2.6 mm 8 mps 676 mmHg 92%
    05:00 +5°C° 1 mm 7 mps 676 mmHg 91%
    06:00 +5°C° 1 mm 5 mps 677 mmHg 91%
    07:00 +4°C° 1 mm 4 mps 678 mmHg 90%
    08:00 +4°C° 0.3 mm 3 mps 678 mmHg 88%
    09:00 +4°C° 0.3 mm 3 mps 679 mmHg 86%
    10:00 +5°C° 0.3 mm 2 mps 680 mmHg 85%
    11:00 +6°C° 0.1 mm 2 mps 680 mmHg 82%
    12:00 +7°C° 0.1 mm 1 mps 680 mmHg 79%
    13:00 +7°C° 0.1 mm 1 mps 680 mmHg 76%
    14:00 +7°C° 0 mm 1 mps 680 mmHg 79%
    15:00 +6°C° 0 mm 1 mps 681 mmHg 83%
    16:00 +5°C° 0 mm 1 mps 681 mmHg 87%
    17:00 +5°C° 0.3 mm 1 mps 681 mmHg 89%
    18:00 +4°C° 0.3 mm 1 mps 681 mmHg 90%
    19:00 +4°C° 0.3 mm 1 mps 681 mmHg 92%
    20:00 +4°C° 0.6 mm 1 mps 682 mmHg 92%
    21:00 +4°C° 0.6 mm 1 mps 682 mmHg 92%
    22:00 +4°C° 0.6 mm 1 mps 682 mmHg 92%
    23:00 +3°C° 0.8 mm 1 mps 682 mmHg 93%

    Tomorrow, 17 December, Sunday

    Time Temperature Precipitation Wind Pressure Humidity
    00:00 +3°C° 0.8 mm 1 mps 682 mmHg 93%
    01:00 +3°C° 0.8 mm 1 mps 682 mmHg 93%
    02:00 +1°C° 0.6 mm 2 mps 682 mmHg 93%
    03:00 +1°C° 0.6 mm 2 mps 682 mmHg 93%
    04:00 +1°C° 0.6 mm 2 mps 683 mmHg 93%
    05:00 -1°C° 0.7 mm 2 mps 683 mmHg 93%
    06:00 -1°C° 0.7 mm 2 mps 683 mmHg 93%
    07:00 -1°C° 0.7 mm 2 mps 684 mmHg 93%
    08:00 -1°C° 0.6 mm 2 mps 684 mmHg 92%
    09:00 -1°C° 0.6 mm 3 mps 685 mmHg 90%
    10:00 -1°C° 0.6 mm 3 mps 685 mmHg 89%
    11:00 -1°C° 0.4 mm 3 mps 685 mmHg 88%
    12:00 -1°C° 0.4 mm 3 mps 685 mmHg 87%
    13:00 -1°C° 0.4 mm 3 mps 685 mmHg 85%
    14:00 -1°C° 0.2 mm 3 mps 686 mmHg 86%
    15:00 -2°C° 0.2 mm 3 mps 686 mmHg 87%
    16:00 -2°C° 0.2 mm 3 mps 686 mmHg 87%
    17:00 -2°C° 0.2 mm 3 mps 687 mmHg 87%
    18:00 -4°C° 0.2 mm 3 mps 687 mmHg 88%
    19:00 -4°C° 0.2 mm 3 mps 688 mmHg 88%
    20:00 -4°C° 0.1 mm 3 mps 688 mmHg 88%
    21:00 -4°C° 0.1 mm 3 mps 689 mmHg 87%
    22:00 -4°C° 0.1 mm 3 mps 689 mmHg 87%
    23:00 -5°C° 0.1 mm 3 mps 689 mmHg 87%

    Day after tomorrow, 18 December, Monday

    Time Temperature Precipitation Wind Pressure Humidity
    00:00 -5°C° 0.1 mm 3 mps 689 mmHg 87%
    01:00 -5°C° 0.1 mm 3 mps 689 mmHg 87%
    02:00 -5°C° 0.1 mm 3 mps 690 mmHg 87%
    03:00 -5°C° 0.1 mm 3 mps 690 mmHg 86%
    04:00 -5°C° 0.1 mm 3 mps 690 mmHg 86%
    05:00 -5°C° 0.1 mm 3 mps 690 mmHg 86%
    06:00 -6°C° 0.1 mm 3 mps 690 mmHg 86%
    07:00 -6°C° 0.1 mm 3 mps 691 mmHg 86%
    08:00 -5°C° 0 mm 3 mps 691 mmHg 82%
    09:00 -5°C° 0 mm 3 mps 691 mmHg 79%
    10:00 -4°C° 0 mm 3 mps 692 mmHg 75%
    11:00 -4°C° 0 mm 3 mps 691 mmHg 74%
    12:00 -4°C° 0 mm 3 mps 691 mmHg 72%
    13:00 -2°C° 0 mm 2 mps 691 mmHg 71%
    14:00 -3°C° 0 mm 2 mps 691 mmHg 74%
    15:00 -4°C° 0 mm 2 mps 690 mmHg 78%
    16:00 -3°C° 0 mm 1 mps 690 mmHg 81%
    17:00 -4°C° 0 mm 1 mps 690 mmHg 82%
    18:00 -4°C° 0 mm 1 mps 690 mmHg 83%
    19:00 -6°C° 0 mm 1 mps 690 mmHg 84%
    20:00 -6°C° 0 mm 1 mps 691 mmHg 83%
    21:00 -6°C° 0 mm 1 mps 691 mmHg 82%
    22:00 -6°C° 0 mm 1 mps 691 mmHg 81%
    23:00 -6°C° 0 mm 1 mps 692 mmHg 81%

    19 December, Tuesday

    Time Temperature Precipitation Wind Pressure Humidity
    00:00 -6°C° 0 mm 1 mps 692 mmHg 80%
    01:00 -7°C° 0 mm 1 mps 692 mmHg 79%
    02:00 -7°C° 0 mm 1 mps 692 mmHg 79%
    03:00 -7°C° 0 mm 1 mps 692 mmHg 79%
    04:00 -7°C° 0 mm 1 mps 693 mmHg 79%
    05:00 -7°C° 0 mm 1 mps 693 mmHg 80%
    06:00 -7°C° 0 mm 1 mps 694 mmHg 80%
    07:00 -7°C° 0 mm 1 mps 694 mmHg 81%
    08:00 -4°C° 0 mm 1 mps 695 mmHg 79%
    09:00 -3°C° 0 mm 1 mps 695 mmHg 77%
    10:00 -3°C° 0 mm 2 mps 696 mmHg 75%
    11:00 -3°C° 0 mm 2 mps 696 mmHg 73%
    12:00 -2°C° 0 mm 2 mps 696 mmHg 71%
    13:00 -2°C° 0 mm 2 mps 696 mmHg 69%
    14:00 -3°C° 0 mm 2 mps 696 mmHg 74%
    15:00 -4°C° 0 mm 2 mps 696 mmHg 78%
    16:00 -5°C° 0 mm 2 mps 696 mmHg 82%
    17:00 -6°C° 0 mm 2 mps 696 mmHg 84%
    18:00 -7°C° 0 mm 2 mps 696 mmHg 85%
    19:00 -7°C° 0 mm 2 mps 696 mmHg 87%
    20:00 -8°C° 0 mm 2 mps 696 mmHg 87%
    21:00 -8°C° 0 mm 2 mps 696 mmHg 87%
    22:00 -7°C° 0 mm 1 mps 697 mmHg 88%
    23:00 -8°C° 0 mm 1 mps 696 mmHg 87%

    20 December, Wednesday

    Time Temperature Precipitation Wind Pressure Humidity
    00:00 -8°C° 0 mm 1 mps 696 mmHg 86%
    01:00 -8°C° 0 mm 1 mps 696 mmHg 85%
    02:00 -8°C° 0 mm 1 mps 696 mmHg 84%
    03:00 -8°C° 0 mm 1 mps 696 mmHg 83%
    04:00 -8°C° 0 mm 1 mps 695 mmHg 82%
    05:00 -8°C° 0 mm 1 mps 695 mmHg 80%
    06:00 -8°C° 0 mm 1 mps 695 mmHg 79%
    07:00 -7°C° 0 mm 1 mps 695 mmHg 77%
    08:00 -6°C° 0 mm 1 mps 696 mmHg 75%
    09:00 -4°C° 0 mm 1 mps 696 mmHg 73%
    10:00 -2°C° 0 mm 1 mps 696 mmHg 70%
    11:00 -1°C° 0.1 mm 1 mps 696 mmHg 71%
    12:00 0°C° 0.1 mm 1 mps 696 mmHg 72%
    13:00 0°C° 0.1 mm 1 mps 696 mmHg 72%
    14:00 0°C° 0.1 mm 1 mps 696 mmHg 77%
    15:00 -1°C° 0.1 mm 1 mps 696 mmHg 81%
    16:00 -1°C° 0.1 mm 1 mps 696 mmHg 86%
    17:00 -2°C° 0 mm 1 mps 696 mmHg 87%
    18:00 -2°C° 0 mm 1 mps 696 mmHg 89%
    19:00 -3°C° 0 mm 1 mps 696 mmHg 90%
    20:00 -3°C° 0 mm 1 mps 696 mmHg 91%
    21:00 -3°C° 0 mm 1 mps 696 mmHg 91%
    22:00 -4°C° 0 mm 1 mps 696 mmHg 91%
    23:00 -4°C° 0 mm 1 mps 696 mmHg 91%

    21 December, Thursday

    Time Temperature Precipitation Wind Pressure Humidity
    00:00 -4°C° 0 mm 1 mps 696 mmHg 91%
    01:00 -4°C° 0 mm 1 mps 696 mmHg 90%
    02:00 -4°C° 0 mm 1 mps 696 mmHg 90%
    03:00 -4°C° 0 mm 1 mps 696 mmHg 90%
    04:00 -6°C° 0 mm 1 mps 696 mmHg 89%
    05:00 -4°C° 0 mm 1 mps 696 mmHg 88%
    06:00 -4°C° 0 mm 1 mps 696 mmHg 87%
    07:00 -3°C° 0 mm 1 mps 696 mmHg 86%
    08:00 -2°C° 0 mm 1 mps 697 mmHg 83%
    09:00 0°C° 0 mm 1 mps 697 mmHg 80%
    10:00 +1°C° 0 mm 1 mps 697 mmHg 78%
    11:00 +2°C° 0.1 mm 1 mps 697 mmHg 79%
    12:00 +3°C° 0.1 mm 1 mps 697 mmHg 81%
    13:00 +4°C° 0.1 mm 1 mps 697 mmHg 82%
    14:00 +3°C° 0 mm 1 mps 697 mmHg 85%
    15:00 +3°C° 0 mm 1 mps 697 mmHg 88%
    16:00 +3°C° 0 mm 1 mps 697 mmHg 90%
    17:00 +2°C° 0 mm 1 mps 697 mmHg 91%
    18:00 +2°C° 0 mm 1 mps 697 mmHg 92%
    19:00 +2°C° 0 mm 1 mps 697 mmHg 92%
    20:00 +2°C° 0 mm 1 mps 697 mmHg 92%
    21:00 +2°C° 0 mm 1 mps 697 mmHg 91%
    22:00 +1°C° 0 mm 1 mps 696 mmHg 91%
    23:00 +2°C° 0 mm 1 mps 696 mmHg 90%
    Show more